INDIA1 VIDP-FMEE

Flight info

Callsign INDIA1
Flight time N/A
Altitude 36000
Route DUDUM A474 NIKOT Q2 SG A474 ESMIT/N0497F380 A474 MURUS UT474 UNPAP R348 XAKUV/N0501F390 UM314 NIBIS NIBIS2R
Aircraft B77W/H-SADE1E2E3FGHIJ2J3J4J5J6J7M1M3P1P2P3RUWXYZ/LB1D1

Departure

Time 2026-05-05 18:26
Airport Indira Gandhi International Airport (VIDP)

Arrival

Time N/A
Airport Roland Garros Airport (FMEE)
Time Latitude Longitude Altitude Speed Heading
2026-05-05 18:11 28.57218 77.11418 755 ft 0 kts 122°
2026-05-05 18:21 28.57218 77.11419 755 ft 2 kts 122°
2026-05-05 18:21 28.57176 77.11465 751 ft 15 kts 142°
2026-05-05 18:22 28.57088 77.11554 752 ft 17 kts 124°
2026-05-05 18:22 28.56988 77.11618 753 ft 17 kts 172°
2026-05-05 18:22 28.56866 77.11620 751 ft 18 kts 212°
2026-05-05 18:22 28.56845 77.11447 752 ft 33 kts 272°
2026-05-05 18:23 28.56851 77.11198 753 ft 30 kts 272°
2026-05-05 18:23 28.56856 77.10961 751 ft 30 kts 271°
2026-05-05 18:23 28.56862 77.10725 755 ft 30 kts 271°
2026-05-05 18:23 28.56867 77.10489 751 ft 30 kts 271°
2026-05-05 18:24 28.56873 77.10252 751 ft 30 kts 271°
2026-05-05 18:24 28.56878 77.10016 755 ft 30 kts 271°
2026-05-05 18:24 28.56883 77.09780 752 ft 30 kts 271°
2026-05-05 18:24 28.56887 77.09547 755 ft 30 kts 271°
2026-05-05 18:25 28.56892 77.09310 755 ft 30 kts 271°
2026-05-05 18:25 28.56895 77.09150 755 ft 30 kts 271°
2026-05-05 18:25 28.56916 77.08888 752 ft 12 kts 307°
2026-05-05 18:25 28.57016 77.08874 752 ft 18 kts 26°
2026-05-05 18:26 28.57050 77.09126 755 ft 69 kts 91°
2026-05-05 18:26 28.57030 77.10046 755 ft 162 kts 91°
2026-05-05 18:26 28.56985 77.11564 1079 ft 209 kts 93°
2026-05-05 18:26 28.56920 77.13320 1690 ft 238 kts 91°
2026-05-05 18:27 28.56873 77.15241 2625 ft 249 kts 91°
2026-05-05 18:27 28.56827 77.17269 3410 ft 262 kts 91°
2026-05-05 18:27 28.56780 77.19383 4273 ft 271 kts 90°
2026-05-05 18:27 28.56730 77.21546 5233 ft 274 kts 91°
2026-05-05 18:28 28.54874 77.25242 6812 ft 291 kts 153°
2026-05-05 18:28 28.52946 77.25764 7695 ft 292 kts 184°
2026-05-05 18:28 28.50993 77.25212 8554 ft 292 kts 211°
2026-05-05 18:29 28.49373 77.23848 9377 ft 291 kts 224°
2026-05-05 18:29 28.47844 77.22283 10192 ft 298 kts 225°
2026-05-05 18:29 28.46313 77.20680 11031 ft 300 kts 226°
2026-05-05 18:29 28.44770 77.19054 11889 ft 304 kts 226°
2026-05-05 18:30 28.43206 77.17406 12718 ft 309 kts 226°
2026-05-05 18:30 28.41614 77.15734 13552 ft 314 kts 226°
2026-05-05 18:30 28.39994 77.14038 14333 ft 318 kts 226°
2026-05-05 18:30 28.38355 77.12329 15153 ft 321 kts 226°
2026-05-05 18:31 28.36699 77.10607 15976 ft 323 kts 226°
2026-05-05 18:31 28.35031 77.08875 16798 ft 327 kts 227°
2026-05-05 18:31 28.33341 77.07124 17618 ft 330 kts 227°
2026-05-05 18:31 28.31636 77.05357 18415 ft 334 kts 227°
2026-05-05 18:32 28.29917 77.03579 19163 ft 335 kts 226°
2026-05-05 18:32 28.28188 77.01792 19931 ft 337 kts 226°
2026-05-05 18:32 28.26446 76.99992 20711 ft 339 kts 226°
2026-05-05 18:32 28.24696 76.98185 21482 ft 342 kts 226°
2026-05-05 18:33 28.22932 76.96364 22245 ft 344 kts 226°
2026-05-05 18:33 28.21153 76.94528 23010 ft 347 kts 225°
2026-05-05 18:33 28.19362 76.92681 23719 ft 350 kts 225°
2026-05-05 18:33 28.17555 76.90818 24332 ft 353 kts 226°
2026-05-05 18:34 28.15732 76.88940 24925 ft 356 kts 226°
2026-05-05 18:34 28.13887 76.87039 25522 ft 360 kts 226°
2026-05-05 18:34 28.12026 76.85123 26129 ft 363 kts 226°
2026-05-05 18:34 28.10172 76.83216 26705 ft 366 kts 226°
2026-05-05 18:35 28.08273 76.81262 27296 ft 370 kts 226°
2026-05-05 18:35 28.06358 76.79294 27880 ft 374 kts 226°
2026-05-05 18:35 28.04423 76.77306 28441 ft 377 kts 226°
2026-05-05 18:35 28.02471 76.75302 29030 ft 381 kts 226°
2026-05-05 18:36 28.00495 76.73273 29587 ft 384 kts 226°
2026-05-05 18:36 27.98507 76.71235 30099 ft 388 kts 227°
2026-05-05 18:36 27.96498 76.69174 30563 ft 390 kts 227°
2026-05-05 18:36 27.94499 76.67127 31053 ft 392 kts 227°
2026-05-05 18:37 27.92471 76.65050 31527 ft 394 kts 227°
2026-05-05 18:37 27.90433 76.62964 31907 ft 398 kts 227°
2026-05-05 18:37 27.88356 76.60834 31902 ft 409 kts 227°
2026-05-05 18:37 27.86218 76.58645 31938 ft 420 kts 227°
2026-05-05 18:38 27.81814 76.54150 31938 ft 430 kts 227°
2026-05-05 18:38 27.77056 76.49984 31931 ft 436 kts 219°
2026-05-05 18:39 27.71981 76.46204 31912 ft 437 kts 219°
2026-05-05 18:39 27.66912 76.42411 31915 ft 437 kts 219°
2026-05-05 18:40 27.61897 76.38631 31906 ft 436 kts 219°
2026-05-05 18:40 27.56850 76.34828 31924 ft 436 kts 219°
2026-05-05 18:41 27.51805 76.31032 31925 ft 436 kts 219°
2026-05-05 18:41 27.46649 76.27417 31891 ft 437 kts 217°
2026-05-05 18:42 27.41437 76.23898 31927 ft 437 kts 217°
2026-05-05 18:42 27.36221 76.20357 31918 ft 438 kts 217°
2026-05-05 18:43 27.31007 76.16792 31917 ft 438 kts 217°
2026-05-05 18:43 27.25804 76.13230 31938 ft 437 kts 217°
2026-05-05 18:44 27.20600 76.09670 31929 ft 438 kts 217°
2026-05-05 18:44 27.15380 76.06104 31925 ft 439 kts 217°
2026-05-05 18:45 27.10164 76.02545 31927 ft 439 kts 217°
2026-05-05 18:45 27.04941 75.98986 31930 ft 439 kts 217°
2026-05-05 18:46 26.99712 75.95425 31925 ft 440 kts 217°
2026-05-05 18:46 26.94479 75.91866 31931 ft 439 kts 217°
2026-05-05 18:47 26.89283 75.88336 31934 ft 439 kts 217°
2026-05-05 18:47 26.84056 75.84801 31935 ft 440 kts 216°
2026-05-05 18:48 26.78436 75.81933 31941 ft 447 kts 207°
2026-05-05 18:48 26.72603 75.79507 31936 ft 448 kts 207°
2026-05-05 18:49 26.66764 75.77075 31933 ft 448 kts 207°
2026-05-05 18:49 26.60927 75.74617 31929 ft 448 kts 207°
2026-05-05 18:50 26.55092 75.72149 31923 ft 449 kts 207°
2026-05-05 18:50 26.49242 75.69676 31914 ft 449 kts 207°
2026-05-05 18:51 26.43393 75.67207 31913 ft 449 kts 207°
2026-05-05 18:51 26.37543 75.64741 31907 ft 449 kts 207°
2026-05-05 18:52 26.31683 75.62274 31908 ft 449 kts 207°
2026-05-05 18:52 26.25835 75.59813 31904 ft 449 kts 207°
2026-05-05 18:53 26.19988 75.57357 31901 ft 449 kts 207°
2026-05-05 18:53 26.14142 75.54903 31899 ft 448 kts 207°
2026-05-05 18:54 26.08342 75.52471 31901 ft 448 kts 207°
2026-05-05 18:54 26.02503 75.50024 31892 ft 448 kts 207°
2026-05-05 18:55 25.96673 75.47585 31909 ft 446 kts 207°
2026-05-05 18:55 25.90847 75.45149 31895 ft 448 kts 207°
2026-05-05 18:56 25.85001 75.42715 31892 ft 448 kts 207°
2026-05-05 18:56 25.79148 75.40309 31890 ft 449 kts 207°
2026-05-05 18:57 25.73293 75.37908 31886 ft 448 kts 207°
2026-05-05 18:57 25.67443 75.35508 31888 ft 448 kts 207°
2026-05-05 18:58 25.61598 75.33110 31887 ft 448 kts 207°
2026-05-05 18:58 25.55753 75.30713 31889 ft 448 kts 207°
2026-05-05 18:59 25.49910 75.28320 31883 ft 447 kts 207°
2026-05-05 18:59 25.44069 75.25932 31891 ft 447 kts 207°
2026-05-05 19:00 25.38234 75.23547 31888 ft 447 kts 207°
2026-05-05 19:00 25.33384 75.21566 31887 ft 447 kts 207°
2026-05-05 19:01 25.27533 75.19180 31890 ft 448 kts 207°
2026-05-05 19:01 25.21679 75.16794 31888 ft 448 kts 207°
2026-05-05 19:02 25.15815 75.14407 31892 ft 449 kts 207°
2026-05-05 19:02 25.09936 75.12017 31888 ft 450 kts 207°
2026-05-05 19:03 25.04053 75.09628 31888 ft 451 kts 207°
2026-05-05 19:03 24.98203 75.07253 31895 ft 451 kts 207°
2026-05-05 19:04 24.92318 75.04868 31892 ft 451 kts 207°
2026-05-05 19:04 24.86436 75.02486 31893 ft 450 kts 207°
2026-05-05 19:05 24.80557 75.00107 31904 ft 451 kts 207°
2026-05-05 19:05 24.74662 74.97725 31890 ft 451 kts 207°
2026-05-05 19:06 24.68771 74.95346 31890 ft 451 kts 207°
2026-05-05 19:06 24.62884 74.92971 31885 ft 450 kts 207°
2026-05-05 19:07 24.56997 74.90599 31892 ft 450 kts 207°
2026-05-05 19:07 24.51113 74.88222 31887 ft 450 kts 207°
2026-05-05 19:08 24.45233 74.85845 31891 ft 450 kts 207°
2026-05-05 19:08 24.39391 74.83485 31887 ft 450 kts 207°
2026-05-05 19:09 24.33511 74.81113 31889 ft 450 kts 207°
2026-05-05 19:09 24.27632 74.78744 31884 ft 450 kts 207°
2026-05-05 19:10 24.21753 74.76377 31889 ft 450 kts 207°
2026-05-05 19:10 24.15873 74.74012 31890 ft 450 kts 207°
2026-05-05 19:11 24.09992 74.71648 31881 ft 450 kts 207°
2026-05-05 19:11 24.04107 74.69286 31877 ft 450 kts 207°
2026-05-05 19:12 23.98224 74.66929 31874 ft 450 kts 207°
2026-05-05 19:12 23.92354 74.64581 31871 ft 449 kts 207°
2026-05-05 19:13 23.86484 74.62234 31872 ft 449 kts 207°
2026-05-05 19:13 23.80620 74.59892 31873 ft 449 kts 207°
2026-05-05 19:14 23.74747 74.57548 31866 ft 449 kts 207°
2026-05-05 19:14 23.68878 74.55207 31859 ft 449 kts 207°
2026-05-05 19:15 23.63011 74.52870 31867 ft 448 kts 207°
2026-05-05 19:15 23.57152 74.50539 31854 ft 448 kts 207°
2026-05-05 19:16 23.51295 74.48210 31863 ft 448 kts 207°
2026-05-05 19:16 23.45478 74.45899 31856 ft 448 kts 207°
2026-05-05 19:17 23.39614 74.43570 31861 ft 449 kts 206°
2026-05-05 19:17 23.33741 74.41242 31860 ft 449 kts 206°
2026-05-05 19:18 23.27875 74.38918 31858 ft 449 kts 206°
2026-05-05 19:18 23.21999 74.36592 31857 ft 449 kts 206°
2026-05-05 19:19 23.16134 74.34273 31866 ft 449 kts 206°
2026-05-05 19:19 23.10266 74.31956 31863 ft 449 kts 206°
2026-05-05 19:20 23.04401 74.29643 31867 ft 448 kts 206°
2026-05-05 19:20 22.98536 74.27331 31877 ft 448 kts 206°
2026-05-05 19:21 22.92666 74.25018 31872 ft 448 kts 206°
2026-05-05 19:21 22.86802 74.22709 31870 ft 449 kts 206°
2026-05-05 19:22 22.80931 74.20401 31869 ft 448 kts 206°
2026-05-05 19:22 22.75068 74.18097 31885 ft 448 kts 206°
2026-05-05 19:23 22.69200 74.15793 31876 ft 449 kts 206°
2026-05-05 19:23 22.63322 74.13488 31886 ft 449 kts 206°
2026-05-05 19:24 22.57442 74.11183 31884 ft 450 kts 206°
2026-05-05 19:24 22.51552 74.08875 31891 ft 450 kts 206°
2026-05-05 19:25 22.45697 74.06582 31886 ft 450 kts 205°
2026-05-05 19:25 22.39799 74.04275 31889 ft 450 kts 205°
2026-05-05 19:26 22.33907 74.01971 31881 ft 450 kts 205°
2026-05-05 19:26 22.28019 73.99671 31883 ft 450 kts 205°
2026-05-05 19:27 22.22132 73.97374 31877 ft 449 kts 205°
2026-05-05 19:27 22.16249 73.95079 31884 ft 449 kts 205°
2026-05-05 19:28 22.10370 73.92788 31881 ft 449 kts 205°
2026-05-05 19:28 22.04482 73.90497 31881 ft 450 kts 205°
2026-05-05 19:29 21.98668 73.88235 31884 ft 450 kts 205°
2026-05-05 19:29 21.92768 73.85943 31881 ft 450 kts 205°
2026-05-05 19:30 21.86878 73.83656 31888 ft 450 kts 205°
2026-05-05 19:30 21.80984 73.81371 31897 ft 450 kts 205°
2026-05-05 19:31 21.75089 73.79086 31887 ft 450 kts 205°
2026-05-05 19:31 21.69209 73.76809 31892 ft 449 kts 204°
2026-05-05 19:32 21.63324 73.74533 31894 ft 449 kts 204°
2026-05-05 19:32 21.57424 73.72253 31895 ft 450 kts 204°
2026-05-05 19:33 21.51529 73.69975 31887 ft 450 kts 204°
2026-05-05 19:33 21.45629 73.67699 31888 ft 450 kts 204°
2026-05-05 19:34 21.39770 73.65440 31888 ft 450 kts 204°
2026-05-05 19:35 21.30930 73.62036 31889 ft 449 kts 204°
2026-05-05 19:35 21.25047 73.59771 31883 ft 449 kts 204°
2026-05-05 19:36 21.19164 73.57509 31888 ft 449 kts 204°
2026-05-05 19:36 21.13255 73.55317 31886 ft 450 kts 202°
2026-05-05 19:37 21.07253 73.53325 31886 ft 451 kts 201°
2026-05-05 19:37 21.01249 73.51353 31883 ft 451 kts 201°
2026-05-05 19:38 20.95255 73.49357 31887 ft 451 kts 201°
2026-05-05 19:38 20.89264 73.47346 31885 ft 452 kts 201°
2026-05-05 19:39 20.83265 73.45331 31887 ft 452 kts 201°
2026-05-05 19:39 20.77263 73.43319 31888 ft 452 kts 201°
2026-05-05 19:40 20.71249 73.41305 31903 ft 452 kts 201°
2026-05-05 19:40 20.65250 73.39296 31899 ft 452 kts 201°
2026-05-05 19:41 20.59239 73.37286 31889 ft 453 kts 201°
2026-05-05 19:41 20.53228 73.35279 31900 ft 453 kts 201°
2026-05-05 19:42 20.47257 73.33285 31883 ft 452 kts 201°
2026-05-05 19:42 20.41245 73.31279 31899 ft 452 kts 201°
2026-05-05 19:43 20.35249 73.29281 31902 ft 451 kts 201°
2026-05-05 19:43 20.30259 73.27618 31896 ft 451 kts 201°
2026-05-05 19:44 20.24256 73.25620 31897 ft 451 kts 200°
2026-05-05 19:44 20.18258 73.23629 31894 ft 451 kts 200°
2026-05-05 19:45 20.12265 73.21643 31901 ft 450 kts 200°
2026-05-05 19:45 20.06317 73.19673 31898 ft 451 kts 200°
2026-05-05 19:46 20.00324 73.17687 31895 ft 451 kts 200°
2026-05-05 19:46 19.94323 73.15701 31894 ft 452 kts 200°
2026-05-05 19:47 19.88309 73.13713 31885 ft 452 kts 200°
2026-05-05 19:47 19.82304 73.11729 31886 ft 452 kts 200°
2026-05-05 19:48 19.76287 73.09743 31883 ft 452 kts 200°
2026-05-05 19:48 19.70319 73.07774 31876 ft 452 kts 200°
2026-05-05 19:49 19.64312 73.05794 31877 ft 451 kts 200°
2026-05-05 19:49 19.58312 73.03817 31872 ft 451 kts 200°
2026-05-05 19:50 19.52312 73.01844 31872 ft 451 kts 200°
2026-05-05 19:50 19.46317 72.99871 31866 ft 451 kts 200°
2026-05-05 19:51 19.40314 72.97898 31868 ft 451 kts 200°
2026-05-05 19:51 19.34601 72.96022 31871 ft 451 kts 200°
2026-05-05 19:52 19.28594 72.94051 31874 ft 451 kts 200°
2026-05-05 19:52 19.22635 72.92098 31877 ft 451 kts 200°
2026-05-05 19:53 19.16641 72.90134 31881 ft 451 kts 200°
2026-05-05 19:53 19.10643 72.88169 31886 ft 451 kts 200°
2026-05-05 19:54 19.04744 72.85960 31887 ft 449 kts 204°
2026-05-05 19:54 18.98924 72.83516 31883 ft 449 kts 204°
2026-05-05 19:55 18.93110 72.81068 31875 ft 449 kts 204°
2026-05-05 19:55 18.87293 72.78638 31870 ft 450 kts 204°
2026-05-05 19:56 18.81472 72.76219 31864 ft 450 kts 204°
2026-05-05 19:56 18.75645 72.73801 31852 ft 450 kts 204°
2026-05-05 19:57 18.69821 72.71386 31853 ft 450 kts 204°
2026-05-05 19:57 18.63993 72.68971 31855 ft 450 kts 204°
2026-05-05 19:58 18.58165 72.66557 31854 ft 450 kts 204°
2026-05-05 19:58 18.52335 72.64144 31855 ft 450 kts 204°
2026-05-05 19:59 18.46506 72.61734 31855 ft 450 kts 204°
2026-05-05 19:59 18.40717 72.59341 31853 ft 450 kts 204°
2026-05-05 20:00 18.34885 72.56933 31854 ft 450 kts 204°
2026-05-05 20:00 18.29059 72.54529 31853 ft 450 kts 204°
2026-05-05 20:01 18.23233 72.52127 31852 ft 450 kts 204°
2026-05-05 20:01 18.17401 72.49724 31851 ft 450 kts 204°
2026-05-05 20:02 18.11613 72.47342 31829 ft 436 kts 204°
2026-05-05 20:02 18.08834 72.46201 31829 ft 422 kts 204°
2026-05-05 20:02 18.06143 72.45097 31827 ft 408 kts 204°